Regional Weather Roundup
Issued by NWS

Home | Current Version | Previous Version | Text Only | Print | Product List | Glossary On
Versions: 1 2 3 4 5 6 7 8 9 10 11 12 13 14 15 16 17 18 19 20 21 22 23 24 25 26 27 28 29 30 31 32 33 34 35 36 37 38 39 40 41 42 43 44 45 46 47 48 49 50
000
ASUS44 KFWD 251515
RWRTX
NORTH TEXAS HOURLY WEATHER ROUNDUP
NATIONAL WEATHER SERVICE FORT WORTH TX
1000 AM CDT THU MAY 25 2017

NOTE: "FAIR" INDICATES FEW OR NO CLOUDS BELOW 12,000 FEET WITH NO
SIGNIFICANT WEATHER AND/OR OBSTRUCTIONS TO VISIBILITY.

TXZ118-119-251600-
DALLAS/FORT WORTH METROPLEX

CITY           SKY/WX    TMP DP  RH WIND       PRES   REMARKS
DFW AIRPORT    MOSUNNY   78  53  41 S15G23    29.69F
DALLAS LOVE    MOSUNNY   76  53  44 S10G20    29.71F
FTW MEACHAM    SUNNY     78  53  41 S14G21    29.70R
DAL-EXECUTIVE  SUNNY     75  56  51 S10G18    29.71F
FTW-ALLIANCE   MOSUNNY   75  53  46 S8        29.70R
FTW-NAS-JRB    SUNNY     77  53  43 S14       29.70S
FTW-SPINKS     SUNNY     75  54  46 S16G22    29.72S
ARLINGTON      SUNNY     74  53  48 S16G22    29.70F
GRAND PRAIRIE  SUNNY     73  52  46 S14G21    29.72S
MESQUITE       SUNNY     73  54  49 S12G17    29.73F
LANCASTER      SUNNY     74  55  49 S13G18    29.73F
$$

TXZ091>094-102>105-117-120-121-131>134-251600-
NORTH CENTRAL TEXAS

CITY           SKY/WX    TMP DP  RH WIND       PRES   REMARKS
SHRMAN/DENISON SUNNY     73  54  50 S3        29.73S
GAINESVILLE    SUNNY     72  53  50 S15       29.72S
BOWIE          SUNNY     74  53  47 S12G21    29.68S
BRIDGEPORT     SUNNY     76  52  43 S12G18    29.70S
DECATUR        SUNNY     73  51  46 S10       29.70S
DENTON         SUNNY     75  55  49 S12       29.70S
MCKINNEY       SUNNY     74  54  49 S14G23    29.72F
BONHAM         SUNNY     73  54  49 S13G18    29.74S
GREENVILLE     SUNNY     77  55  47 S12       29.75F
ROCKWALL       SUNNY     74  55  49 S16       29.73F
TERRELL        SUNNY     74  53  48 S17       29.74F
WAXAHACHIE     SUNNY     72  57  58 S15G21    29.73F
CLEBURNE       SUNNY     73  55  53 S15G24    29.73R
GRANBURY       SUNNY     78  52  39 S13G20    29.72R
$$

TXZ083>090-098>101-113>116-127>130-139>142-154-155-251600-
WESTERN NORTH TEXAS

CITY           SKY/WX    TMP DP  RH WIND       PRES   REMARKS
WICHITA FALLS  MOSUNNY   74  52  46 S15G21    29.63F
WF-KICKAPOO    SUNNY     73  53  47 S13       29.65F
VERNON         SUNNY     73  48  40 S14       29.61F
ABILENE        SUNNY     73  53  49 S17G23    29.67R
ABILENE-DYESS  SUNNY     75  54  47 S18G35    29.64R
GRAHAM         SUNNY     79  51  36 S10G22    29.65S
BRECKENRIDGE   SUNNY     79  48  33 S20G31    29.66S
CISCO          SUNNY     73  52  46 S22G31    29.68F
EASTLAND       SUNNY     74  52  45 S23G30    29.69S
RANGER         SUNNY     75  51  43 S18G25    29.70S
MINERAL WELLS  SUNNY     75  53  46 S12       29.67S
STEPHENVILLE   SUNNY     76  51  41 S10G22    29.74R
COMANCHE       SUNNY     75  54  48 SW24G30   29.71S
BROWNWOOD      SUNNY     75  54  46 S14       29.72F
COLEMAN        SUNNY     75  52  43 S17G23    29.71F
$$

TXZ143>147-156>162-174-175-251600-
CENTRAL TEXAS

CITY           SKY/WX    TMP DP  RH WIND       PRES   REMARKS
WACO           SUNNY     79  51  37 S20G33    29.74R
WACO-TSTC      SUNNY     75  54  46 S18       29.74
WACO-MCGREGOR  SUNNY     78  52  40 S21G29    29.74R
HILLSBORO      SUNNY     75  55  49 S20       29.73S
CORSICANA      SUNNY     76  57  51 S15G22    29.76F
MEXIA          SUNNY     74  56  54 S17G28    29.76S
HEARNE         SUNNY     76  62  61 S16G25    29.79F
CAMERON        SUNNY     76  59  55 S22G29    29.77S
TEMPLE         SUNNY     78  54  43 S24G35    29.75S
KILLEEN        SUNNY     76  46  34 S21G29    29.73S
KILLEEN-SKYLRK SUNNY     78  51  38 S17       29.75S
FORT HOOD      SUNNY     77  48  35 S15G24    29.72R
HAMILTON       SUNNY     78  53  42 SW24G30   29.74S
LAMPASAS       SUNNY     78  53  42 SW10G21   29.74S
$$

TXZ095>097-106>112-122>126-135>138-148>153-164>167-251600-
EAST TEXAS

CITY           SKY/WX    TMP DP  RH WIND       PRES   REMARKS
PARIS          SUNNY     72  54  53 SE17G23   29.77F
SULPHUR SPRNGS SUNNY     73  53  48 S12       29.79S
MOUNT PLEASANT SUNNY     72  53  51 SE10      29.80F
GILMER         SUNNY     71  54  54 S10G16    29.79F
MINEOLA        SUNNY     72  55  56 S5        29.77F
TYLER          SUNNY     74  57  55 S13       29.78F
LONGVIEW       SUNNY     74  57  55 S15       29.80F
MARSHALL       SUNNY     70  53  55 S7        29.84F
ATHENS         SUNNY     72  55  56 S13G21    29.76F
PALESTINE      SUNNY     73  61  64 S8G17     29.80S
JACKSONVILLE   SUNNY     70  59  68 S9G16     29.82F
HENDERSON      SUNNY     73  57  59 S10G16    29.82S
CENTER         SUNNY     76  59  53 SE7       29.84S
NACOGDOCHES    SUNNY     72  61  68 S7        29.81S
LUFKIN         SUNNY     73  62  68 S10       29.83S
$$

SUPPLEMENTAL OBSERVATIONS (NWS FORT WORTH AREA)

CITY           SKY/WX    TMP DP  RH WIND       PRES   REMARKS
DENISON DAM      N/A     73  54  49 SE9         N/A
CADDO GRASSLND   N/A     73  52  46 S9G18       N/A
PAT MAYSE LAKE   N/A     70  46  43 SE18        N/A
LBJ GRASSLAND    N/A     75  54  46 S9          N/A
POSSUM KINGDOM   N/A     81  50  34 S15G22      N/A
GRANBURY         N/A     79  54  41 S16G22      N/A
COMANCHE         N/A     77  55  47 SW18G29     N/A
MCGREGOR         N/A     79  50  36 S13G26      N/A
TEMPLE           N/A     79  55  44 S20G32      N/A
LAKE LIMESTONE   N/A     75  57  53 S16G26      N/A
ATHENS           N/A     75  55  50 S9G17       N/A
$$

SUPPLEMENTAL OBSERVATIONS (NWS NORMAN AREA)

CITY           SKY/WX    TMP DP  RH WIND       PRES   REMARKS
GOODLETT         N/A     76  48  36 S16       29.58S
ODELL            N/A     74  52  45 SE20      29.61S
CROWELL          N/A     76  51  40 S18       29.60F
KNOX CITY        N/A     78  47  33 S16       29.62F
SEYMOUR          N/A     78  46  32 S20G26    29.62F
MILLERS CREEK    N/A     77  50  38 SW16G23     N/A
$$

SUPPLEMENTAL OBSERVATIONS (NWS SAN ANGELO AREA)

CITY           SKY/WX    TMP DP  RH WIND       PRES   REMARKS
WEINERT          N/A     78  49  36 S16       29.63F
HASKELL          N/A     76  46  33 S17       29.63F
THROCKMORTON     N/A     78  52  40 S10       29.65S
STAMFORD         N/A     77  53  43 SW23      29.65S
CLYDE            N/A     75  54  48 S17       29.69S
HAMBY            N/A     75  50  41 S20G25      N/A
IVIE RESERVOIR   N/A     81  55  41 S12         N/A
COLORADO BEND    N/A     77  48  36 W17G25      N/A
$$

SUPPLEMENTAL OBSERVATIONS (NWS SHREVEPORT AREA)

CITY           SKY/WX    TMP DP  RH WIND       PRES   REMARKS
CLARKSVILLE      N/A     72  54  53 S10         N/A
TEXARKANA        N/A     72  55  56 S5          N/A
LINDEN           N/A     73  54  49 SE5         N/A
CADDO LAKE       N/A     75  54  46 S5          N/A
GILMER           N/A     73  54  49 S9          N/A
HENDERSON        N/A     73  57  56 S10         N/A
LUFKIN           N/A    N/A N/A N/A MISG        N/A
N SABINE NF      N/A     73  59  60 MISG        N/A
S SABINE NF      N/A     77  59  53 S3          N/A
$$

SUPPLEMENTAL OBSERVATIONS ARE A COLLECTION OF AUTOMATED INSTRUMENTS
THAT ARE MAINTAINED BY A VARIETY OF FEDERAL AND STATE AGENCIES.
CERTAIN ELEMENTS...SUCH AS HUMIDITY VALUES AND SUSTAINED WIND
SPEEDS...MAY BE APPROXIMATED.




USA.gov is the U.S. government's official web portal to all federal, state and local government web resources and services.